TimeEDT,TemperatureF,Dew PointF,Humidity,Sea Level PressureIn,VisibilityMPH,Wind Direction,Wind SpeedMPH,Gust SpeedMPH,PrecipitationIn,Events,Conditions,WindDirDegrees,DateUTC
12:54 AM,43.0,28.9,58,30.62,10.0,Calm,Calm,-,N/A,,Mostly Cloudy,0,2013-04-22 04:54:00
1:54 AM,41.0,30.0,65,30.61,10.0,Calm,Calm,-,N/A,,Mostly Cloudy,0,2013-04-22 05:54:00
2:54 AM,39.9,28.9,65,30.60,10.0,ENE,3.5,-,N/A,,Overcast,60,2013-04-22 06:54:00
3:54 AM,39.0,28.9,67,30.60,10.0,NE,6.9,-,N/A,,Mostly Cloudy,50,2013-04-22 07:54:00
4:54 AM,37.9,30.0,73,30.61,10.0,ENE,5.8,-,N/A,,Scattered Clouds,60,2013-04-22 08:54:00
5:54 AM,39.9,32.0,73,30.60,10.0,NE,9.2,-,N/A,,Mostly Cloudy,50,2013-04-22 09:54:00
6:54 AM,41.0,33.1,73,30.60,10.0,NE,9.2,-,N/A,,Scattered Clouds,50,2013-04-22 10:54:00
7:54 AM,45.0,34.0,65,30.61,10.0,ENE,12.7,19.6,N/A,,Scattered Clouds,60,2013-04-22 11:54:00
8:54 AM,46.9,33.1,59,30.62,10.0,ENE,19.6,24.2,N/A,,Mostly Cloudy,70,2013-04-22 12:54:00
9:54 AM,50.0,33.1,52,30.61,10.0,ENE,13.8,24.2,N/A,,Scattered Clouds,70,2013-04-22 13:54:00
10:54 AM,52.0,33.1,49,30.60,10.0,ENE,12.7,21.9,N/A,,Scattered Clouds,60,2013-04-22 14:54:00
11:54 AM,52.0,33.1,49,30.58,10.0,ENE,15.0,24.2,N/A,,Mostly Cloudy,70,2013-04-22 15:54:00
12:54 PM,51.1,33.1,50,30.58,10.0,ENE,13.8,21.9,N/A,,Mostly Cloudy,70,2013-04-22 16:54:00
1:54 PM,54.0,33.1,45,30.56,10.0,East,16.1,25.3,N/A,,Mostly Cloudy,90,2013-04-22 17:54:00
2:54 PM,52.0,33.1,49,30.55,10.0,East,17.3,23.0,N/A,,Mostly Cloudy,80,2013-04-22 18:54:00
3:54 PM,51.1,33.1,50,30.53,10.0,East,23.0,27.6,N/A,,Mostly Cloudy,80,2013-04-22 19:54:00
4:54 PM,51.1,33.1,50,30.51,10.0,ENE,17.3,25.3,N/A,,Mostly Cloudy,70,2013-04-22 20:54:00
5:54 PM,51.1,34.0,52,30.50,10.0,ENE,12.7,-,N/A,,Mostly Cloudy,60,2013-04-22 21:54:00
6:54 PM,48.9,33.1,54,30.48,10.0,ENE,13.8,21.9,N/A,,Mostly Cloudy,70,2013-04-22 22:54:00
7:54 PM,48.0,35.1,61,30.49,10.0,East,15.0,-,N/A,,Mostly Cloudy,80,2013-04-22 23:54:00
8:54 PM,46.9,36.0,66,30.49,10.0,East,12.7,-,N/A,,Mostly Cloudy,80,2013-04-23 00:54:00
9:54 PM,46.9,37.9,71,30.49,10.0,ENE,16.1,24.2,N/A,,Mostly Cloudy,70,2013-04-23 01:54:00
10:27 PM,46.4,37.4,71,30.48,10.0,ENE,12.7,18.4,N/A,,Overcast,70,2013-04-23 02:27:00
10:54 PM,46.9,37.9,71,30.47,10.0,ENE,10.4,19.6,N/A,,Overcast,70,2013-04-23 02:54:00
11:54 PM,46.0,39.0,76,30.46,10.0,ENE,11.5,23.0,N/A,,Overcast,60,2013-04-23 03:54:00